TimeCET,TemperatureF,Dew PointF,Humidity,Sea Level PressureIn,VisibilityMPH,Wind Direction,Wind SpeedMPH,Gust SpeedMPH,PrecipitationIn,Events,Conditions,WindDirDegrees,DateUTC
12:55 AM,28.4,21.2,74,30.06,-9999.0,Variable,2.3,-,N/A,,Clear,0,2012-11-16 23:55:00
2:55 AM,28.4,23.0,80,30.04,-9999.0,Calm,Calm,-,N/A,,Clear,0,2012-11-17 01:55:00
3:55 AM,28.4,23.0,80,30.04,-9999.0,Calm,Calm,-,N/A,,Clear,0,2012-11-17 02:55:00
4:55 AM,28.4,23.0,80,30.04,-9999.0,Calm,Calm,-,N/A,,Clear,0,2012-11-17 03:55:00
6:55 AM,28.4,21.2,74,30.01,-9999.0,Calm,Calm,-,N/A,,Clear,0,2012-11-17 05:55:00
7:55 AM,28.4,21.2,74,30.01,-9999.0,Calm,Calm,-,N/A,,Clear,0,2012-11-17 06:55:00
8:55 AM,28.4,23.0,80,30.01,-9999.0,Calm,Calm,-,N/A,,Clear,0,2012-11-17 07:55:00
9:55 AM,37.4,28.4,70,30.01,-9999.0,Calm,Calm,-,N/A,,Clear,0,2012-11-17 08:55:00
10:55 AM,39.2,23.0,52,30.01,-9999.0,SSW,5.8,-,N/A,,Clear,200,2012-11-17 09:55:00
11:55 AM,41.0,19.4,42,30.01,-9999.0,SW,8.1,-,N/A,,Clear,220,2012-11-17 10:55:00
12:55 PM,41.0,19.4,42,29.98,-9999.0,SSW,6.9,-,N/A,,Clear,200,2012-11-17 11:55:00
1:55 PM,42.8,12.2,29,29.98,-9999.0,SSE,8.1,-,N/A,,Clear,160,2012-11-17 12:55:00
2:55 PM,41.0,19.4,42,29.95,-9999.0,SW,5.8,-,N/A,,Clear,220,2012-11-17 13:55:00
3:55 PM,37.4,19.4,48,29.95,-9999.0,South,3.5,-,N/A,,Clear,190,2012-11-17 14:55:00
4:55 PM,35.6,19.4,52,29.95,-9999.0,SSE,3.5,-,N/A,,Clear,160,2012-11-17 15:55:00
5:55 PM,33.8,19.4,56,29.95,-9999.0,Calm,Calm,-,N/A,,Clear,0,2012-11-17 16:55:00
6:55 PM,32.0,17.6,55,29.95,-9999.0,Calm,Calm,-,N/A,,Clear,0,2012-11-17 17:55:00
7:55 PM,30.2,17.6,60,29.95,-9999.0,Calm,Calm,-,N/A,,Clear,0,2012-11-17 18:55:00
8:55 PM,30.2,19.4,64,29.95,-9999.0,Calm,Calm,-,N/A,,Clear,0,2012-11-17 19:55:00
9:55 PM,30.2,19.4,64,29.95,-9999.0,Calm,Calm,-,N/A,,Clear,0,2012-11-17 20:55:00
10:55 PM,28.4,19.4,69,29.95,-9999.0,Calm,Calm,-,N/A,,Clear,0,2012-11-17 21:55:00
11:55 PM,28.4,19.4,69,29.95,-9999.0,Calm,Calm,-,N/A,,Clear,0,2012-11-17 22:55:00